sat.trackr.live / text

‹ back to catalog

NESS

NORAD 58020 · 2023-155E

PAYLOAD ACTIVE UNKNOWN

§ Identity

Operator
Country
FR
Launch date
2023-10-09
Launch site
FRGUI
Launch vehicle
Mass (kg)
RCS (m²)

External: N2YO · Heavens-Above · Gunter

§ Orbital elements

Epoch: 2026-09-21T16:49:01.531488Z

Period
93.94 min
Inclination
97.5870°
Eccentricity
0.0005103
Mean motion
15.32912591 rev/d
Perigee alt
463.6 km
Apogee alt
470.6 km
Semi-major
6,845.3 km
B*
3.7332e-4
RAAN
352.7828°
Arg perigee
205.0662°
Mean anomaly
155.0333°
Rev number
16,326

§ Raw data

NESS1 58020U 23155E   26264.70071217  .00011796  00000+0  37332-3 0  99902 58020  97.5870 352.7828 0005103 205.0662 155.0333 15.32912591163264

JSON: /api/v1/satellites/58020 · /tle

For live sub-satellite position, see the globe view (requires WebGL).

§ Visibility from observer

Set your observer location to see the next 7 days of passes ≥ 10°. The values pass through the URL so the page stays shareable.

No JS? Fill the form by hand. The geolocation button needs JavaScript.